STARLINK-31091 (58629 NORAD) Tracking and Keplerian Element Data

This shows tracking and keplerian element data for the satellite.

Feedback or suggestion? Click here.




ElementValue
Catalog58629
NameSTARLINK-31091
Epoch Orbit440
Epoch Day13.25002315
Epoch Year2024
RAAN183.7278
Inclination43.0012
Eccentricity0.0001453
Argument of Perigee256.7816
Mean Anonmoly13.3799
Mean Motion15.5262934
Decay Rate-0.01739349
L11 58629U 23203M 24013.25002315 -.01739349 00000+0 -30898-1 0 9994
L22 58629 43.0012 183.7278 0001453 256.7816 13.3799 15.52629340 4403



Live tracking and technical data element details for STARLINK-31091 (NORAD 58629). STARLINK-31091 can be tracked NOW for your location showing map with azimuth and elevation plus other details from your city location.







IsCatalogInMostPopularTable: catalog: 58629, numindb: 24
Update: records affected: 1



GetName: 58629 STARLINK-31091

Hit Count: updated at: Wed, 17 Apr 2024 02:27:28 GMT